Weather History for Green Bay, WI

Change the Weather History Date:

Friday, December 6, 2013

  Actual Average Record
Temperature  
Mean Temperature 10 °F 25 °F  
Max Temperature 16 °F 32 °F 52 °F (1998)
Min Temperature 4 °F 18 °F -15 °F (1972)
Degree Days  
Heating Degree Days 55 40  
Month to date heating degree days 215 235  
Since 1 July heating degree days 1826 1975  
Cooling Degree Days 0 0  
Month to date cooling degree days 0 0  
Year to date cooling degree days 535 398  
Moisture  
Dew Point 0 °F    
Average Humidity 71    
Maximum Humidity 83    
Minimum Humidity 59    
Precipitation  
Precipitation 0.00 in 0.05 in 0.44 in (1908)
Month to date precipitation 0.53 0.35  
Year to date precipitation 33.80 28.36  
Snow  
Snow 0.00 in 0.40 in 5.00 in (1908)
Month to date snowfall 3.9 2.3  
Since 1 July snowfall 5.1 6.5  
Snow Depth 0.00 in    
Sea Level Pressure  
Sea Level Pressure 30.41 in    
Wind  
Wind Speed 13 mph (West)    
Max Wind Speed 22 mph    
Max Gust Speed 26 mph    
Visibility 10 miles    
Events      
T = Trace of Precipitation, MM = Missing Value Source: NWS Daily Summary

Daily Weather History Graph

Daily Weather History Graph

Search for Another Location

Airport:

Trip Planner

Search our weather history database for the weather conditions in past years. The results will help you decide how hot, cold, wet, or windy it might be!

Date:

Astronomy

Dec. 06, 2013 Rise Set
Actual Time 7:14 AM CST 4:12 PM CST
Civil Twilight 6:41 AM CST 4:45 PM CST
Nautical Twilight 6:04 AM CST 5:22 PM CST
Astronomical Twilight 5:29 AM CST 5:57 PM CST
Moon 10:14 AM CST (12/6) 8:50 PM CST (12/6)
Length of Visible Light 10h 04m
Length of Day
8h 58m
Waxing Crescent, 19% of the Moon is Illuminated
Dec 6
Waxing Crescent
Dec 9
First Quarter
Dec 17
Full
Dec 25
Last Quarter
Jan 1
New

Hourly Weather History & Observations

Time (CST) Temp. Windchill Dew Point Humidity Pressure Visibility Wind Dir Wind Speed Gust Speed Precip Events Conditions
12:53 AM 9.0 °F -9.0 °F 1.0 °F 70% 30.28 in 10.0 mi West 17.3 mph - N/A   Clear
1:53 AM 8.1 °F -8.4 °F 1.0 °F 73% 30.29 in 10.0 mi West 13.8 mph 20.7 mph N/A   Clear
2:53 AM 7.0 °F -10.4 °F 1.0 °F 77% 30.29 in 10.0 mi West 15.0 mph - N/A   Clear
3:53 AM 6.1 °F -8.7 °F -0.0 °F 76% 30.30 in 10.0 mi West 10.4 mph - N/A   Clear
4:53 AM 6.1 °F -11.6 °F -0.0 °F 76% 30.32 in 10.0 mi West 15.0 mph - N/A   Clear
5:53 AM 5.0 °F -10.8 °F -0.9 °F 76% 30.33 in 10.0 mi West 11.5 mph - N/A   Clear
6:53 AM 3.9 °F -13.0 °F -2.0 °F 76% 30.36 in 10.0 mi West 12.7 mph - N/A   Clear
7:53 AM 3.9 °F -11.3 °F -2.0 °F 76% 30.37 in 10.0 mi West 10.4 mph - N/A   Clear
8:53 AM 6.1 °F -12.2 °F -0.9 °F 73% 30.40 in 10.0 mi West 16.1 mph - N/A   Clear
9:53 AM 8.1 °F -8.4 °F -0.0 °F 70% 30.40 in 10.0 mi WNW 13.8 mph - N/A   Clear
10:53 AM 10.0 °F -5.9 °F 1.0 °F 67% 30.42 in 10.0 mi West 13.8 mph - N/A   Clear
11:53 AM 12.0 °F -2.7 °F 1.9 °F 64% 30.41 in 10.0 mi West 12.7 mph - N/A   Clear
12:53 PM 12.9 °F -2.8 °F 3.0 °F 65% 30.39 in 10.0 mi WNW 15.0 mph - N/A   Clear
1:53 PM 15.1 °F 1.8 °F 3.0 °F 59% 30.38 in 10.0 mi WNW 11.5 mph - N/A   Clear
2:53 PM 14.0 °F -0.2 °F 3.0 °F 62% 30.39 in 10.0 mi West 12.7 mph - N/A   Clear
3:53 PM 12.9 °F -2.2 °F 1.0 °F 59% 30.43 in 10.0 mi WNW 13.8 mph - N/A   Clear
4:53 PM 10.9 °F -1.8 °F 1.0 °F 64% 30.43 in 10.0 mi West 9.2 mph - N/A   Clear
5:53 PM 10.0 °F -4.5 °F -0.0 °F 64% 30.45 in 10.0 mi West 11.5 mph - N/A   Clear
6:53 PM 9.0 °F -5.9 °F -0.9 °F 64% 30.46 in 10.0 mi West 11.5 mph - N/A   Clear
7:53 PM 7.0 °F -8.3 °F -2.0 °F 67% 30.49 in 10.0 mi West 11.5 mph - N/A   Clear
8:53 PM 6.1 °F -9.5 °F -2.0 °F 69% 30.52 in 10.0 mi West 11.5 mph - N/A   Clear
9:53 PM 5.0 °F -10.8 °F -2.0 °F 73% 30.53 in 10.0 mi WNW 11.5 mph - N/A   Clear
10:53 PM 5.0 °F -12.3 °F -2.0 °F 73% 30.54 in 10.0 mi WNW 13.8 mph - N/A   Clear
11:53 PM 3.9 °F -12.2 °F -2.0 °F 76% 30.55 in 10.0 mi WNW 11.5 mph - N/A   Clear